When you browse on this site, cookies collect data to enhance your experience and personalize the content and advertising you see.
Visit our Privacy Policy to learn more. By continuing to use the site, you agree to this use of cookies and data.
  • En España
  • Lista de países
  • Para 7 días
  • Temperatura del agua
  • El tiempo en el mapa
  • Informadores
  • user-avatar
    Iniciar sesión

    Tiempo cada hora Mutare

    Hoy, 21 Octubre, Lunes

    Tiempo Temperatura Precipitaciones Viento Presión Humedad
    00:00 +20°C° 0 mm 1 mps 652 mmHg 80%
    01:00 +19°C° 0 mm 1 mps 652 mmHg 84%
    02:00 +19°C° 0 mm 1 mps 651 mmHg 85%
    03:00 +18°C° 0 mm 1 mps 651 mmHg 82%
    04:00 +18°C° 0 mm 1 mps 651 mmHg 78%
    05:00 +16°C° 0 mm 0 mps 651 mmHg 74%
    06:00 +20°C° 0 mm 0 mps 652 mmHg 59%
    07:00 +24°C° 0 mm 0 mps 653 mmHg 45%
    08:00 +28°C° 0 mm 0 mps 655 mmHg 30%
    09:00 +32°C° 0 mm 1 mps 655 mmHg 24%
    10:00 +35°C° 0 mm 1 mps 655 mmHg 19%
    11:00 +37°C° 0 mm 1 mps 655 mmHg 13%
    12:00 +38°C° 0 mm 2 mps 654 mmHg 13%
    13:00 +38°C° 0 mm 3 mps 653 mmHg 13%
    14:00 +38°C° 0 mm 3 mps 652 mmHg 13%
    15:00 +37°C° 0 mm 4 mps 652 mmHg 14%
    16:00 +36°C° 0 mm 4 mps 652 mmHg 16%
    17:00 +34°C° 0 mm 4 mps 651 mmHg 17%
    18:00 +32°C° 0 mm 4 mps 651 mmHg 22%
    19:00 +29°C° 0 mm 3 mps 652 mmHg 26%
    20:00 +27°C° 0 mm 3 mps 652 mmHg 31%
    21:00 +25°C° 0 mm 3 mps 652 mmHg 40%
    22:00 +24°C° 0 mm 2 mps 651 mmHg 49%
    23:00 +21°C° 0 mm 2 mps 651 mmHg 58%

    Mañana, 22 Octubre, Martes

    Tiempo Temperatura Precipitaciones Viento Presión Humedad
    00:00 +21°C° 0 mm 2 mps 651 mmHg 64%
    01:00 +21°C° 0 mm 1 mps 650 mmHg 71%
    02:00 +20°C° 0 mm 1 mps 649 mmHg 78%
    03:00 +20°C° 0 mm 1 mps 649 mmHg 75%
    04:00 +20°C° 0 mm 1 mps 650 mmHg 73%
    05:00 +20°C° 0 mm 1 mps 650 mmHg 71%
    06:00 +23°C° 0 mm 1 mps 651 mmHg 59%
    07:00 +26°C° 0 mm 2 mps 653 mmHg 47%
    08:00 +30°C° 0 mm 2 mps 654 mmHg 35%
    09:00 +31°C° 0 mm 3 mps 655 mmHg 31%
    10:00 +34°C° 0 mm 3 mps 655 mmHg 27%
    11:00 +35°C° 0 mm 4 mps 655 mmHg 23%
    12:00 +35°C° 0 mm 4 mps 654 mmHg 24%
    13:00 +35°C° 0 mm 5 mps 654 mmHg 25%
    14:00 +35°C° 0 mm 5 mps 653 mmHg 26%
    15:00 +33°C° 0 mm 5 mps 653 mmHg 32%
    16:00 +32°C° 0 mm 5 mps 653 mmHg 39%
    17:00 +29°C° 0 mm 5 mps 652 mmHg 45%
    18:00 +27°C° 0 mm 5 mps 652 mmHg 57%
    19:00 +23°C° 0 mm 5 mps 652 mmHg 69%
    20:00 +21°C° 0 mm 4 mps 653 mmHg 81%
    21:00 +20°C° 0 mm 4 mps 652 mmHg 84%
    22:00 +20°C° 0 mm 3 mps 652 mmHg 86%
    23:00 +19°C° 0 mm 3 mps 652 mmHg 88%

    Pasado mañana, 23 Octubre, Miércoles

    Tiempo Temperatura Precipitaciones Viento Presión Humedad
    00:00 +19°C° 0 mm 3 mps 652 mmHg 89%
    01:00 +18°C° 0 mm 3 mps 651 mmHg 89%
    02:00 +18°C° 0 mm 3 mps 651 mmHg 89%
    03:00 +18°C° 0 mm 3 mps 651 mmHg 89%
    04:00 +18°C° 0 mm 3 mps 651 mmHg 89%
    05:00 +18°C° 0 mm 2 mps 651 mmHg 89%
    06:00 +20°C° 0 mm 3 mps 652 mmHg 77%
    07:00 +22°C° 0 mm 3 mps 653 mmHg 64%
    08:00 +25°C° 0 mm 3 mps 653 mmHg 52%
    09:00 +28°C° 0 mm 3 mps 654 mmHg 43%
    10:00 +32°C° 0 mm 4 mps 654 mmHg 33%
    11:00 +35°C° 0 mm 4 mps 654 mmHg 23%
    12:00 +35°C° 0 mm 4 mps 654 mmHg 21%
    13:00 +36°C° 0 mm 4 mps 653 mmHg 19%
    14:00 +37°C° 0 mm 4 mps 652 mmHg 17%
    15:00 +36°C° 0 mm 4 mps 652 mmHg 19%
    16:00 +35°C° 0 mm 4 mps 652 mmHg 20%
    17:00 +34°C° 0 mm 4 mps 651 mmHg 22%
    18:00 +32°C° 0 mm 4 mps 651 mmHg 27%
    19:00 +28°C° 0 mm 3 mps 651 mmHg 32%
    20:00 +26°C° 0 mm 3 mps 651 mmHg 37%
    21:00 +25°C° 0 mm 2 mps 651 mmHg 41%
    22:00 +24°C° 0 mm 2 mps 651 mmHg 46%
    23:00 +23°C° 0 mm 2 mps 651 mmHg 50%

    24 Octubre, Jueves

    Tiempo Temperatura Precipitaciones Viento Presión Humedad
    00:00 +21°C° 0 mm 2 mps 651 mmHg 57%
    01:00 +20°C° 0 mm 2 mps 650 mmHg 64%
    02:00 +20°C° 0 mm 1 mps 650 mmHg 71%
    03:00 +20°C° 0 mm 1 mps 650 mmHg 69%
    04:00 +20°C° 0 mm 1 mps 651 mmHg 67%
    05:00 +20°C° 0 mm 1 mps 651 mmHg 65%
    06:00 +24°C° 0 mm 1 mps 652 mmHg 53%
    07:00 +28°C° 0 mm 1 mps 654 mmHg 41%
    08:00 +32°C° 0 mm 1 mps 655 mmHg 29%
    09:00 +35°C° 0 mm 2 mps 655 mmHg 24%
    10:00 +37°C° 0 mm 3 mps 655 mmHg 19%
    11:00 +39°C° 0 mm 3 mps 655 mmHg 13%
    12:00 +40°C° 0 mm 4 mps 655 mmHg 13%
    13:00 +40°C° 0 mm 4 mps 654 mmHg 13%
    14:00 +40°C° 0 mm 5 mps 653 mmHg 13%
    15:00 +39°C° 0 mm 5 mps 653 mmHg 14%
    16:00 +37°C° 0 mm 4 mps 653 mmHg 15%
    17:00 +36°C° 0 mm 4 mps 652 mmHg 17%
    18:00 +34°C° 0 mm 4 mps 652 mmHg 21%
    19:00 +30°C° 0 mm 3 mps 652 mmHg 25%
    20:00 +27°C° 0 mm 2 mps 652 mmHg 29%
    21:00 +26°C° 0 mm 2 mps 652 mmHg 39%
    22:00 +25°C° 0 mm 2 mps 652 mmHg 49%
    23:00 +23°C° 0 mm 2 mps 652 mmHg 60%

    25 Octubre, Viernes

    Tiempo Temperatura Precipitaciones Viento Presión Humedad
    00:00 +23°C° 0 mm 2 mps 651 mmHg 62%
    01:00 +21°C° 0 mm 2 mps 651 mmHg 65%
    02:00 +21°C° 0 mm 2 mps 651 mmHg 68%
    03:00 +20°C° 0 mm 2 mps 651 mmHg 68%
    04:00 +21°C° 0 mm 1 mps 651 mmHg 68%
    05:00 +21°C° 0 mm 1 mps 651 mmHg 68%
    06:00 +24°C° 0 mm 2 mps 653 mmHg 56%
    07:00 +27°C° 0 mm 2 mps 654 mmHg 44%
    08:00 +31°C° 0 mm 2 mps 655 mmHg 32%
    09:00 +34°C° 0 mm 3 mps 655 mmHg 26%
    10:00 +36°C° 0 mm 3 mps 655 mmHg 21%
    11:00 +38°C° 0 mm 3 mps 655 mmHg 15%
    12:00 +38°C° 0 mm 3 mps 655 mmHg 15%
    13:00 +38°C° 0 mm 4 mps 654 mmHg 14%
    14:00 +40°C° 0 mm 4 mps 653 mmHg 14%
    15:00 +38°C° 0 mm 4 mps 653 mmHg 15%
    16:00 +37°C° 0 mm 4 mps 652 mmHg 17%
    17:00 +36°C° 0 mm 4 mps 652 mmHg 18%
    18:00 +33°C° 0 mm 3 mps 652 mmHg 22%
    19:00 +30°C° 0 mm 3 mps 652 mmHg 25%
    20:00 +28°C° 0 mm 2 mps 652 mmHg 29%
    21:00 +27°C° 0 mm 2 mps 652 mmHg 32%
    22:00 +26°C° 0 mm 2 mps 652 mmHg 34%
    23:00 +25°C° 0 mm 2 mps 652 mmHg 37%

    26 Octubre, Sábado

    Tiempo Temperatura Precipitaciones Viento Presión Humedad
    00:00 +24°C° 0 mm 2 mps 652 mmHg 41%
    01:00 +23°C° 0 mm 2 mps 651 mmHg 44%
    02:00 +22°C° 0 mm 1 mps 651 mmHg 48%
    03:00 +22°C° 0 mm 1 mps 651 mmHg 50%
    04:00 +21°C° 0 mm 1 mps 651 mmHg 51%
    05:00 +21°C° 0 mm 1 mps 651 mmHg 52%
    06:00 +25°C° 0 mm 1 mps 652 mmHg 44%
    07:00 +28°C° 0 mm 1 mps 653 mmHg 35%
    08:00 +32°C° 0 mm 1 mps 654 mmHg 27%
    09:00 +35°C° 0 mm 2 mps 655 mmHg 22%
    10:00 +38°C° 0 mm 2 mps 655 mmHg 18%
    11:00 +40°C° 0 mm 2 mps 655 mmHg 13%
    12:00 +40°C° 0 mm 3 mps 654 mmHg 12%
    13:00 +40°C° 0 mm 3 mps 654 mmHg 12%
    14:00 +41°C° 0 mm 4 mps 653 mmHg 11%
    15:00 +40°C° 0 mm 4 mps 652 mmHg 12%
    16:00 +38°C° 0 mm 4 mps 652 mmHg 13%
    17:00 +37°C° 0 mm 3 mps 652 mmHg 13%
    18:00 +34°C° 0 mm 4 mps 652 mmHg 19%
    19:00 +32°C° 0 mm 4 mps 652 mmHg 25%
    20:00 +28°C° 0 mm 4 mps 652 mmHg 31%
    21:00 +27°C° 0 mm 4 mps 652 mmHg 37%
    22:00 +26°C° 0 mm 3 mps 652 mmHg 42%
    23:00 +24°C° 0 mm 3 mps 652 mmHg 48%

    27 Octubre, Domingo

    Tiempo Temperatura Precipitaciones Viento Presión Humedad
    00:00 +24°C° 0 mm 3 mps 651 mmHg 50%
    01:00 +23°C° 0 mm 2 mps 650 mmHg 52%
    02:00 +21°C° 0 mm 2 mps 650 mmHg 54%
    03:00 +20°C° 0 mm 2 mps 650 mmHg 55%
    04:00 +20°C° 0 mm 2 mps 650 mmHg 56%
    05:00 +20°C° 0 mm 1 mps 650 mmHg 57%
    06:00 +23°C° 0 mm 2 mps 651 mmHg 47%
    07:00 +27°C° 0 mm 2 mps 652 mmHg 38%
    08:00 +30°C° 0 mm 2 mps 654 mmHg 28%
    09:00 +32°C° 0 mm 2 mps 654 mmHg 24%
    10:00 +35°C° 0 mm 3 mps 654 mmHg 20%
    11:00 +38°C° 0 mm 3 mps 654 mmHg 16%
    12:00 +38°C° 0 mm 3 mps 653 mmHg 15%
    13:00 +40°C° 0 mm 4 mps 653 mmHg 13%
    14:00 +40°C° 0 mm 4 mps 652 mmHg 12%
    15:00 +38°C° 0 mm 4 mps 652 mmHg 13%
    16:00 +37°C° 0 mm 3 mps 651 mmHg 13%
    17:00 +36°C° 0 mm 3 mps 651 mmHg 14%
    18:00 +34°C° 0 mm 3 mps 651 mmHg 17%
    19:00 +30°C° 0 mm 3 mps 651 mmHg 21%
    20:00 +27°C° 0 mm 3 mps 651 mmHg 24%
    21:00 +26°C° 0 mm 2 mps 650 mmHg 30%
    22:00 +25°C° 0 mm 2 mps 650 mmHg 36%
    23:00 +23°C° 0 mm 2 mps 650 mmHg 42%
    Mostrar más